Temp
-17 -18 -19 -18 -19 -19 -19 -19 -20 -20 -20 -21 -20 -19 -18 -18 -18 -17 -17 -17 -17 -18 -17 -17 -17 -17 -17 -17 -16 -15 -14 -14 -13 -14 -14 -12 -11 -10 -10 -10 -10 -9 -9 -9 -9
-18 -18 -18 -19 -19 -20 -20 -20 -23 -24 -24 -25 -25 -23 -21 -19 -19 -17 -18 -17 -17 -18 -17 -17 -17 -17 -17 -17 -16 -15 -13 -13 -13 -13 -13 -12 -12 -12 -10 -10 -10 -10 -9 -10 -9
-18 -19 -19 -19 -19 -21 -20 -21 -24 -24 -24 -25 -25 -25 -25 -23 -20 -18 -19 -19 -17 -18 -18 -18 -18 -18 -18 -17 -16 -15 -13 -13 -14 -13 -13 -13 -12 -12 -12 -10 -11 -10 -10 -10 -10
-19 -19 -19 -19 -21 -21 -22 -25 -25 -25 -25 -25 -25 -25 -25 -25 -22 -21 -20 -19 -18 -17 -18 -18 -17 -17 -18 -17 -17 -15 -15 -14 -14 -14 -13 -13 -13 -12 -12 -11 -10 -11 -10 -10 -10
-18 -19 -19 -21 -21 -22 -24 -26 -26 -25 -26 -25 -26 -26 -25 -25 -25 -23 -20 -19 -19 -18 -18 -18 -17 -17 -17 -17 -17 -17 -15 -15 -14 -14 -13 -13 -13 -13 -12 -12 -11 -11 -11 -10 -10
-18 -19 -20 -20 -21 -23 -25 -26 -26 -26 -26 -26 -26 -26 -26 -26 -26 -24 -21 -20 -19 -19 -18 -18 -17 -17 -17 -17 -17 -17 -16 -15 -14 -14 -13 -12 -13 -13 -13 -12 -12 -11 -12 -11 -10
-18 -19 -20 -20 -22 -23 -26 -26 -27 -27 -27 -27 -26 -26 -26 -26 -26 -24 -22 -20 -19 -20 -18 -18 -18 -17 -17 -17 -18 -17 -17 -15 -14 -14 -14 -13 -13 -13 -13 -14 -13 -13 -12 -12 -11
-18 -19 -20 -20 -21 -23 -25 -26 -27 -27 -27 -27 -27 -27 -26 -26 -25 -24 -23 -21 -20 -20 -18 -19 -19 -18 -18 -18 -18 -18 -17 -16 -15 -15 -14 -14 -13 -14 -14 -14 -14 -13 -13 -13 -13
-18 -19 -20 -20 -21 -22 -24 -26 -26 -27 -27 -27 -27 -27 -26 -26 -24 -25 -23 -21 -20 -19 -19 -19 -19 -18 -18 -18 -18 -18 -17 -15 -16 -16 -15 -14 -15 -14 -15 -15 -13 -14 -14 -13 -13
-19 -19 -20 -20 -21 -21 -23 -25 -26 -26 -27 -27 -27 -27 -26 -26 -25 -24 -22 -20 -20 -19 -18 -19 -19 -18 -18 -18 -17 -17 -17 -16 -16 -16 -16 -15 -14 -16 -16 -15 -13 -14 -14 -13 -13
-19 -19 -20 -20 -21 -21 -21 -23 -25 -25 -26 -26 -26 -26 -26 -25 -24 -24 -21 -20 -19 -19 -19 -18 -18 -17 -17 -17 -17 -17 -18 -17 -16 -17 -16 -16 -16 -16 -17 -16 -14 -14 -14 -14 -13
-19 -19 -20 -20 -20 -21 -21 -22 -23 -24 -25 -25 -25 -26 -25 -24 -24 -23 -21 -19 -19 -19 -19 -19 -18 -18 -18 -18 -18 -18 -18 -17 -18 -18 -18 -16 -16 -17 -16 -15 -14 -14 -14 -14 -14
-18 -19 -20 -20 -20 -20 -21 -21 -22 -22 -23 -24 -25 -25 -25 -24 -23 -22 -21 -20 -19 -20 -19 -18 -18 -18 -18 -18 -18 -17 -17 -17 -17 -17 -16 -16 -16 -16 -15 -14 -14 -14 -14 -14 -13
-18 -19 -19 -19 -19 -20 -20 -20 -21 -21 -21 -22 -22 -22 -24 -23 -22 -21 -20 -20 -19 -19 -19 -19 -19 -19 -19 -18 -18 -17 -17 -17 -17 -17 -17 -17 -16 -16 -15 -14 -14 -15 -14 -13 -13
-18 -19 -19 -19 -19 -20 -20 -20 -20 -21 -21 -21 -21 -21 -22 -22 -21 -21 -20 -19 -19 -18 -19 -18 -18 -18 -18 -18 -18 -18 -18 -17 -17 -18 -17 -17 -17 -15 -15 -14 -13 -14 -15 -14 -14
-18 -18 -19 -19 -18 -19 -20 -20 -20 -20 -21 -21 -20 -20 -20 -21 -20 -20 -20 -19 -19 -19 -19 -18 -18 -18 -18 -18 -18 -17 -17 -17 -17 -17 -17 -16 -17 -15 -15 -14 -15 -15 -14 -15 -15
-17 -18 -18 -19 -18 -18 -19 -19 -19 -19 -20 -20 -21 -20 -20 -19 -20 -20 -19 -19 -19 -19 -19 -19 -18 -18 -18 -18 -18 -18 -17 -17 -18 -17 -16 -17 -17 -14 -15 -15 -15 -15 -15 -15 -15
-16 -18 -18 -18 -18 -18 -19 -18 -19 -20 -20 -20 -19 -20 -20 -19 -19 -19 -20 -19 -19 -19 -19 -18 -18 -18 -18 -17 -17 -17 -17 -18 -18 -17 -17 -17 -16 -15 -15 -15 -15 -15 -15 -15 -15
-15 -17 -18 -18 -18 -18 -18 -19 -19 -19 -19 -20 -19 -19 -19 -19 -19 -19 -19 -19 -19 -18 -18 -18 -18 -18 -18 -17 -17 -17 -17 -18 -18 -18 -18 -18 -16 -16 -16 -16 -16 -15 -16 -16 -15
-15 -16 -17 -18 -18 -18 -18 -18 -18 -18 -18 -19 -19 -19 -18 -18 -19 -18 -19 -19 -18 -18 -18 -18 -18 -18 -18 -18 -18 -18 -19 -18 -18 -18 -18 -17 -17 -16 -17 -17 -17 -16 -17 -16 -15
-15 -16 -17 -18 -18 -18 -18 -18 -18 -18 -18 -18 -18 -18 -19 -18 -19 -19 -18 -18 -18 -18 -18 -18 -19 -19 -19 -18 -18 -18 -18 -18 -19 -18 -18 -17 -17 -17 -17 -18 -18 -17 -17 -17 -16
-15 -16 -18 -17 -18 -18 -18 -18 -18 -18 -18 -18 -18 -18 -18 -19 -18 -18 -18 -18 -18 -18 -18 -18 -18 -17 -18 -18 -18 -18 -18 -18 -19 -18 -18 -18 -17 -17 -18 -18 -18 -18 -18 -17 -17
-15 -16 -17 -17 -18 -18 -18 -18 -18 -18 -18 -19 -19 -19 -19 -18 -18 -18 -18 -18 -18 -18 -18 -18 -18 -18 -18 -18 -18 -17 -18 -18 -18 -18 -18 -18 -18 -18 -18 -18 -18 -18 -18 -18 -18
-14 -15 -16 -18 -18 -19 -19 -18 -19 -18 -19 -19 -19 -19 -19 -19 -18 -18 -18 -18 -18 -18 -18 -18 -18 -18 -18 -18 -18 -18 -18 -18 -18 -17 -18 -17 -18 -18 -18 -18 -18 -18 -18 -18 -18
-13 -15 -17 -18 -18 -18 -19 -19 -19 -19 -19 -19 -19 -19 -19 -19 -19 -18 -18 -18 -18 -19 -19 -19 -19 -19 -18 -18 -18 -18 -18 -18 -18 -18 -17 -18 -18 -18 -18 -18 -18 -18 -18 -17 -17
-13 -15 -17 -18 -18 -18 -19 -19 -19 -20 -20 -20 -20 -20 -19 -19 -19 -19 -18 -18 -18 -19 -19 -19 -19 -19 -19 -19 -18 -18 -18 -18 -18 -18 -17 -17 -17 -18 -18 -18 -18 -19 -18 -18 -18
-13 -15 -17 -19 -19 -19 -20 -20 -20 -20 -19 -20 -20 -20 -20 -19 -19 -19 -19 -19 -19 -18 -19 -18 -18 -18 -18 -19 -19 -18 -19 -18 -18 -18 -18 -17 -18 -17 -18 -18 -18 -18 -18 -17 -17
Height
5675 5668 5661 5652 5641 5631 5620 5609 5594 5587 5583 5581 5584 5588 5598 5608 5619 5633 5651 5665 5671 5680 5690 5699 5706 5714 5722 5732 5741 5752 5756 5765 5778 5787 5792 5802 5804 5807 5815 5823 5827 5833 5841 5844 5848
5668 5659 5649 5639 5626 5611 5598 5583 5572 5568 5567 5568 5568 5569 5573 5584 5600 5621 5638 5645 5656 5669 5678 5689 5699 5707 5715 5724 5733 5742 5749 5766 5780 5786 5788 5794 5798 5801 5808 5817 5820 5827 5835 5842 5846
5660 5650 5639 5626 5610 5594 5579 5564 5559 5559 5559 5560 5560 5561 5563 5568 5581 5611 5619 5628 5643 5657 5668 5678 5686 5697 5707 5717 5725 5737 5752 5761 5768 5771 5776 5787 5793 5795 5802 5809 5815 5823 5829 5835 5839
5653 5643 5629 5615 5598 5578 5560 5552 5551 5552 5552 5552 5552 5554 5557 5562 5575 5585 5600 5617 5631 5646 5658 5669 5681 5691 5699 5711 5723 5734 5741 5751 5758 5759 5773 5779 5785 5794 5796 5803 5808 5816 5823 5827 5832
5649 5637 5624 5607 5587 5564 5549 5545 5546 5546 5545 5546 5547 5548 5550 5555 5562 5573 5593 5610 5622 5639 5652 5665 5677 5688 5698 5708 5717 5724 5735 5741 5748 5756 5766 5774 5779 5783 5787 5797 5802 5811 5816 5821 5826
5645 5633 5618 5601 5579 5558 5547 5544 5542 5541 5541 5542 5541 5542 5543 5548 5550 5564 5581 5599 5616 5634 5646 5659 5674 5684 5692 5702 5711 5722 5725 5729 5739 5750 5753 5764 5772 5776 5783 5789 5794 5803 5810 5815 5820
5643 5632 5618 5599 5579 5559 5549 5544 5541 5538 5536 5536 5535 5536 5537 5539 5548 5563 5575 5595 5612 5630 5644 5656 5666 5678 5688 5695 5703 5712 5713 5721 5736 5744 5751 5756 5761 5769 5777 5782 5788 5795 5804 5810 5815
5642 5631 5617 5602 5584 5566 5555 5549 5543 5537 5534 5533 5532 5531 5533 5539 5548 5557 5569 5590 5607 5625 5640 5651 5662 5671 5681 5689 5694 5704 5707 5717 5731 5736 5743 5749 5760 5765 5770 5774 5781 5788 5795 5802 5807
5642 5631 5619 5607 5590 5573 5560 5552 5547 5542 5537 5534 5532 5532 5535 5539 5546 5556 5567 5586 5607 5626 5639 5648 5657 5668 5676 5685 5691 5697 5706 5719 5725 5733 5740 5746 5756 5762 5764 5769 5775 5783 5788 5794 5800
5643 5633 5623 5612 5599 5584 5569 5558 5549 5545 5541 5538 5536 5537 5538 5542 5550 5560 5572 5592 5611 5626 5639 5645 5653 5664 5673 5682 5691 5702 5709 5716 5726 5732 5736 5741 5750 5755 5759 5765 5771 5776 5782 5788 5794
5646 5636 5627 5617 5606 5594 5581 5568 5558 5551 5546 5542 5540 5540 5541 5549 5556 5563 5575 5594 5613 5624 5634 5641 5652 5666 5675 5683 5691 5699 5704 5709 5719 5725 5730 5736 5740 5747 5752 5757 5765 5770 5776 5781 5787
5648 5640 5631 5623 5612 5603 5593 5583 5570 5560 5556 5552 5549 5548 5550 5555 5560 5569 5580 5597 5608 5622 5634 5645 5654 5664 5672 5681 5688 5694 5700 5705 5712 5716 5721 5727 5734 5740 5746 5753 5760 5765 5770 5775 5779
5652 5644 5636 5629 5619 5610 5602 5594 5586 5575 5568 5562 5557 5557 5557 5561 5570 5582 5594 5604 5613 5624 5637 5646 5656 5662 5669 5678 5685 5692 5698 5702 5708 5712 5717 5723 5729 5734 5742 5747 5753 5760 5764 5769 5774
5654 5647 5641 5634 5627 5618 5611 5604 5595 5592 5585 5580 5575 5573 5571 5573 5586 5592 5605 5611 5619 5630 5638 5645 5655 5663 5668 5676 5683 5689 5694 5699 5702 5707 5714 5717 5725 5731 5736 5740 5746 5754 5759 5762 5766
5658 5650 5644 5639 5633 5625 5619 5612 5606 5599 5595 5593 5590 5590 5587 5593 5597 5600 5606 5614 5624 5631 5641 5649 5655 5662 5669 5676 5680 5685 5691 5696 5699 5702 5706 5711 5716 5727 5728 5734 5742 5747 5751 5755 5758
5658 5654 5647 5645 5638 5633 5628 5622 5617 5608 5603 5604 5603 5604 5605 5603 5606 5608 5611 5620 5627 5636 5643 5651 5656 5662 5667 5672 5677 5682 5687 5690 5692 5696 5700 5706 5709 5717 5724 5732 5732 5738 5745 5748 5751
5659 5654 5650 5647 5641 5638 5636 5632 5628 5619 5617 5617 5615 5615 5615 5617 5619 5617 5620 5626 5633 5638 5646 5651 5657 5663 5666 5671 5676 5680 5683 5686 5689 5690 5696 5698 5700 5715 5717 5723 5726 5729 5734 5740 5743
5658 5654 5652 5647 5644 5641 5641 5639 5635 5629 5624 5624 5623 5622 5624 5623 5625 5625 5627 5634 5638 5643 5648 5652 5657 5661 5666 5671 5676 5678 5680 5683 5684 5686 5692 5692 5695 5706 5712 5716 5719 5722 5725 5731 5736
5655 5652 5650 5648 5645 5641 5643 5642 5638 5634 5632 5631 5630 5627 5625 5627 5630 5632 5636 5639 5642 5645 5650 5653 5658 5661 5665 5669 5672 5674 5676 5681 5682 5682 5685 5686 5690 5698 5702 5707 5711 5714 5718 5724 5728
5655 5649 5648 5647 5644 5642 5641 5642 5640 5638 5635 5635 5635 5633 5630 5629 5632 5634 5637 5639 5641 5645 5649 5653 5656 5659 5662 5665 5667 5671 5674 5677 5678 5678 5679 5680 5684 5690 5696 5700 5702 5705 5710 5715 5719
5652 5646 5644 5642 5641 5640 5639 5639 5639 5639 5637 5637 5637 5636 5635 5634 5634 5635 5636 5639 5641 5643 5646 5650 5654 5657 5658 5661 5664 5667 5670 5672 5673 5673 5673 5675 5679 5684 5689 5692 5694 5697 5700 5705 5710
5650 5645 5640 5639 5638 5636 5635 5635 5636 5637 5637 5637 5638 5637 5637 5637 5637 5637 5637 5639 5641 5643 5646 5650 5653 5654 5657 5660 5662 5664 5666 5667 5666 5669 5669 5670 5673 5677 5682 5686 5689 5691 5694 5698 5702
5648 5641 5636 5634 5631 5631 5631 5630 5631 5633 5634 5636 5637 5637 5637 5638 5638 5638 5638 5639 5640 5643 5646 5649 5651 5651 5653 5657 5658 5660 5663 5663 5664 5664 5664 5665 5669 5672 5676 5680 5682 5685 5687 5691 5693
5646 5638 5632 5629 5628 5627 5627 5627 5626 5628 5629 5631 5634 5635 5636 5637 5637 5638 5639 5639 5640 5641 5643 5645 5646 5648 5650 5651 5653 5656 5658 5659 5660 5660 5663 5662 5665 5668 5671 5674 5676 5679 5681 5684 5687
5642 5633 5626 5624 5621 5620 5620 5622 5623 5623 5624 5626 5628 5631 5633 5635 5635 5636 5637 5638 5639 5640 5640 5642 5644 5645 5646 5648 5649 5651 5653 5654 5656 5659 5656 5662 5660 5664 5667 5669 5671 5672 5674 5676 5679
5640 5631 5622 5619 5616 5615 5615 5615 5618 5619 5620 5622 5624 5626 5628 5631 5633 5633 5633 5634 5636 5637 5637 5638 5640 5641 5642 5644 5645 5646 5648 5650 5652 5653 5655 5655 5657 5661 5663 5664 5667 5667 5669 5671 5673
5637 5627 5619 5616 5612 5611 5610 5611 5613 5615 5616 5617 5619 5621 5623 5625 5627 5629 5630 5630 5631 5633 5633 5635 5636 5637 5639 5639 5639 5641 5643 5644 5647 5648 5650 5649 5655 5651 5656 5660 5662 5663 5664 5666 5668
Wind_Speed
47 43 45 52 56 58 61 62 60 58 50 52 58 63 67 69 67 66 60 56 62 53 52 50 53 52 55 53 60 46 59 61 63 54 54 56 57 57 52 46 46 45 40 38 36
46 45 52 58 61 65 60 62 33 29 32 30 30 37 49 67 71 67 61 62 63 56 54 51 52 52 52 53 56 53 60 53 51 57 55 59 59 56 55 51 49 46 42 38 36
47 50 55 60 62 61 65 50 20 21 33 28 28 26 23 39 67 65 64 64 60 60 56 54 54 53 52 51 56 46 52 50 49 57 58 58 60 56 54 56 51 48 44 39 38
48 54 57 63 60 69 58 21 15 19 22 21 22 23 27 21 42 61 68 66 64 59 58 56 54 53 52 49 52 57 46 44 43 56 54 58 59 57 52 54 55 48 47 46 43
54 55 62 57 66 67 30 15 15 21 20 20 14 19 28 31 30 48 69 63 63 55 59 54 52 51 50 47 48 54 52 51 49 53 51 53 45 50 54 53 54 49 48 48 47
53 57 55 60 64 52 24 14 12 11 12 15 15 17 17 18 35 39 59 65 63 56 57 52 51 48 49 46 48 46 51 55 54 54 52 55 41 45 48 46 45 50 48 46 45
52 55 53 51 60 59 33 19 14 12 15 18 17 16 16 23 33 34 54 61 60 56 54 49 48 49 44 45 45 49 51 61 58 50 52 59 42 37 35 39 41 43 46 43 43
52 49 42 51 55 58 45 23 21 12 7 3 8 11 14 22 40 27 51 59 56 55 49 46 47 46 47 44 45 49 54 58 54 47 53 52 47 32 40 31 37 39 43 42 40
49 49 36 48 55 54 57 35 21 17 12 8 4 4 14 26 49 38 48 56 51 50 46 47 45 43 46 43 42 46 51 52 44 47 47 52 38 42 39 39 50 46 39 39 41
44 48 29 44 52 56 48 43 25 17 12 8 10 10 17 32 41 38 52 54 45 41 46 46 45 46 44 44 39 35 33 44 43 41 44 42 44 39 39 42 43 46 41 42 42
40 46 26 37 45 49 47 39 30 19 14 12 9 15 15 37 36 47 61 59 49 52 50 46 45 43 38 37 34 27 27 37 37 44 43 35 40 41 42 42 42 39 37 41 41
36 41 29 43 44 42 44 43 42 28 19 16 12 18 33 35 40 46 70 71 49 45 38 34 33 38 34 31 31 27 28 29 36 38 42 46 42 45 48 45 38 38 38 38 43
33 34 17 35 40 41 41 37 43 44 28 17 19 21 26 33 51 49 51 57 56 45 36 31 30 34 31 34 32 28 26 27 30 35 39 44 43 45 42 45 43 39 40 40 40
29 27 15 28 31 38 40 36 38 31 28 30 38 30 24 45 46 43 36 39 42 39 46 31 25 31 31 30 29 25 27 26 30 31 33 37 44 40 42 43 43 41 40 40 41
28 20 8 22 27 35 39 36 32 30 30 21 23 29 21 23 24 17 25 42 43 43 36 33 32 30 30 28 25 23 23 24 27 30 33 35 42 42 42 41 36 39 41 41 40
24 13 10 13 22 31 34 31 30 33 31 23 33 40 33 26 20 21 34 40 46 39 35 31 30 29 27 26 25 24 24 26 30 31 32 32 35 44 41 36 40 39 39 42 41
27 15 11 7 13 21 23 26 25 37 36 30 19 24 19 24 20 14 29 27 27 24 25 28 26 26 26 25 24 21 21 22 27 31 33 35 37 43 42 38 39 41 41 41 44
31 14 6 2 5 10 15 14 13 19 25 27 30 19 19 21 19 20 31 24 27 22 23 21 21 20 21 23 24 20 21 20 23 29 30 34 37 32 40 41 38 40 44 42 42
46 20 4 6 7 11 8 7 9 8 7 16 18 19 7 10 13 17 23 24 27 22 23 23 24 23 21 23 27 25 20 16 17 19 25 33 33 32 32 37 36 37 41 42 41
53 30 9 8 15 13 8 3 6 2 9 12 13 14 15 8 12 10 16 19 21 23 23 23 24 24 26 28 24 22 21 18 20 21 19 22 30 30 31 29 32 33 41 42 41
51 31 17 9 10 19 17 14 9 4 9 7 7 8 9 11 9 9 11 14 16 20 21 21 16 19 27 29 25 21 20 19 21 25 25 22 24 29 29 25 26 30 40 43 41
57 36 26 12 10 12 17 18 20 15 12 5 1 4 5 7 7 7 12 14 14 14 18 18 14 21 23 22 24 25 24 25 26 25 23 23 22 23 24 29 27 22 26 38 40
65 47 30 18 13 13 13 17 19 16 13 12 5 2 2 3 6 7 7 11 19 17 18 18 16 14 24 26 28 26 23 22 22 20 19 23 19 18 19 22 24 23 26 26 32
63 53 38 22 13 15 15 14 16 20 16 14 12 7 3 2 4 7 8 9 13 17 19 18 17 18 15 19 25 28 26 26 25 19 12 12 12 14 17 18 19 23 25 29 30
65 59 47 23 14 15 17 16 14 15 18 15 15 14 10 7 6 7 9 10 11 11 14 16 17 17 19 19 21 19 21 22 22 20 23 14 19 18 18 18 19 18 19 25 27
64 61 44 26 16 15 19 18 18 15 15 17 16 13 11 12 11 10 9 10 11 14 14 14 17 19 20 20 21 23 24 23 19 19 18 17 19 18 20 19 18 18 20 21 21
61 62 52 29 16 15 18 21 20 21 18 18 19 18 15 13 14 13 12 12 12 13 17 18 16 17 20 24 25 24 20 24 23 23 21 24 16 25 20 15 15 18 22 22 20
Wind_Direction
341 337 327 322 316 310 308 307 297 293 277 265 254 247 237 232 227 225 223 218 213 212 213 209 211 211 211 213 223 220 213 209 208 202 203 213 214 214 213 210 218 221 218 221 219
343 334 327 323 318 317 319 313 295 276 271 262 255 251 242 229 224 219 219 217 214 207 210 209 212 213 211 210 220 210 217 207 209 210 208 213 215 213 215 210 215 219 219 223 224
342 334 331 326 323 323 320 318 287 263 267 260 264 250 238 227 222 215 213 216 213 204 207 207 208 211 215 209 210 208 213 215 209 206 206 214 219 216 217 214 214 217 221 221 224
341 338 333 331 326 324 329 311 276 263 267 258 253 246 240 232 222 209 209 211 214 205 203 205 208 209 213 211 210 215 210 200 203 208 203 210 218 223 217 221 218 216 218 222 222
345 340 340 341 332 334 343 330 284 285 274 258 239 250 247 246 225 207 206 207 209 205 199 204 206 208 213 212 211 215 214 214 202 206 201 197 203 216 220 221 225 219 218 223 226
350 345 352 347 353 357 358 345 331 303 258 238 250 254 242 218 205 193 199 202 206 201 194 200 203 207 211 212 214 212 212 210 203 205 197 194 198 200 207 207 215 220 218 221 226
353 354 356 9 4 4 3 358 340 304 273 260 257 235 234 209 187 176 192 196 200 200 190 197 198 205 209 210 211 210 216 211 212 209 205 197 196 198 197 200 212 214 213 220 225
355 360 4 14 10 5 6 355 360 5 26 336 261 255 206 193 167 170 182 187 193 193 190 194 197 201 206 208 211 208 218 211 211 217 218 213 199 193 208 212 204 206 209 214 218
359 360 6 14 18 8 9 7 10 13 24 36 83 154 166 173 165 164 174 177 187 189 188 198 200 198 204 208 212 211 215 213 214 214 222 225 208 214 222 224 222 220 214 215 216
2 1 13 16 24 33 25 17 18 23 29 48 82 105 153 166 165 164 160 166 173 184 179 202 199 199 204 208 216 219 217 220 222 219 220 227 215 215 223 224 219 222 222 224 224
3 3 28 23 27 27 30 31 27 31 51 91 78 130 155 151 157 161 155 158 163 169 170 182 196 198 202 205 210 212 217 221 218 228 223 215 217 213 221 225 224 225 227 227 227
6 5 40 31 26 22 25 32 44 48 70 72 79 129 137 152 156 162 155 158 152 161 170 172 179 190 194 199 205 207 211 214 216 221 226 222 214 214 218 226 226 229 228 227 231
11 6 33 33 32 26 23 15 33 49 57 72 100 131 153 152 138 140 155 168 182 190 187 193 188 185 189 199 207 214 216 224 223 222 228 225 217 218 223 226 229 230 235 235 235
11 12 43 38 42 30 23 18 16 44 55 59 93 119 149 150 140 123 146 159 168 177 183 186 190 189 189 193 205 214 218 225 226 226 229 233 223 221 225 229 228 230 233 235 235
13 17 33 37 39 32 30 28 49 63 71 67 70 104 139 142 120 159 147 170 170 181 189 201 190 189 191 196 198 211 220 227 232 232 231 228 228 216 225 226 226 227 228 234 238
10 16 6 34 44 37 32 48 53 63 75 73 87 95 123 120 157 140 145 153 176 166 161 170 172 177 182 188 194 208 220 226 228 231 232 231 233 217 224 227 233 233 228 231 237
6 6 358 64 53 37 32 45 60 68 75 74 86 59 124 129 127 152 178 165 157 154 158 161 172 178 184 192 206 217 224 228 232 233 234 232 234 216 221 228 232 230 232 233 234
360 7 337 150 84 2 36 48 73 62 58 45 61 81 122 110 123 103 165 172 184 181 170 176 178 188 195 203 218 222 220 235 255 252 244 246 236 225 221 224 234 231 230 234 235
358 358 320 235 250 307 353 29 33 32 34 35 51 68 122 146 134 133 144 157 168 171 181 190 197 196 205 211 214 218 223 234 251 258 248 240 236 223 222 226 232 232 226 228 229
355 347 343 257 249 275 297 319 24 58 0 20 42 59 67 158 168 175 177 179 177 180 182 189 194 207 213 210 217 222 218 247 247 262 267 253 239 229 223 234 235 231 224 225 227
357 342 343 294 262 248 265 266 269 290 303 336 15 63 84 93 149 160 181 186 191 190 192 192 199 218 209 214 217 221 236 252 258 261 263 258 241 235 240 241 230 226 222 223 225
352 351 341 319 262 258 251 261 262 257 266 258 352 71 93 118 126 144 163 187 191 196 199 196 225 224 224 218 221 229 238 242 247 255 257 256 244 235 238 243 241 225 233 225 230
343 350 344 332 270 254 255 254 264 262 253 235 211 148 120 136 147 146 155 178 189 196 195 204 218 224 225 221 216 231 242 243 243 245 246 248 236 231 235 242 244 245 231 232 234
340 344 344 333 300 258 257 257 259 260 259 240 225 227 214 245 192 180 181 189 205 213 216 222 228 222 223 223 228 235 237 234 232 223 234 239 222 227 231 228 231 232 234 238 237
336 340 341 336 315 265 250 254 256 268 260 258 252 249 240 235 243 223 210 211 212 221 228 233 235 237 236 235 232 232 234 228 232 245 248 241 239 239 238 244 246 248 246 233 235
334 338 336 335 323 274 250 245 246 247 251 248 247 247 234 229 237 237 233 233 228 226 229 236 237 236 240 240 240 244 245 250 255 252 251 254 249 251 243 245 248 249 240 242 236
333 339 333 334 328 289 259 242 246 246 244 243 241 249 244 235 240 243 241 240 236 236 230 229 233 243 248 249 249 247 252 248 241 239 246 249 253 246 246 243 237 238 246 245 240